Tracking 18030 objects as of 28-March-2017
HD Live streaming from Space Station
objects crossing your sky now

CZ-2D DEB

Track CZ-2D DEB now!
10-day predictions


NORAD ID: 35272
Int'l Code: 2005-024L
Perigee: 515.5 km
Apogee: 535.3 km
Inclination: 97.6 °
Period: 95.0 minutes
Semi major axis: 6896 km
RCS: 0.0215 m2 (small)
Launch date: July 5, 2005
Source: People's Republic of China (PRC)
Launch site: Jiuquan Satellite Launch Center, China (JSC)

Note: This is SATELLITE DEBRIS
Your satellite tracking list
Your tracking list is empty





NASA's NSSDC Master Catalog

Two Line Element Set (TLE):
1 35272U 05024L   17082.36507125 +.00000854 +00000-0 +48057-4 0  9992
2 35272 097.5707 124.6671 0014337 147.5710 276.2882 15.15893888624919
Source of the keplerian elements: AFSPC